Location: Winthrop
(48.4780°N, 120.1850°W)
Time: 00:58:59
(UTC-07:00)

A-11 Canister half - Pass Details

Date: 04 June 2023
Orbit: 1515 x 1684 km, 47.2° (Epoch: 29 September)

Event Time Altitude Azimuth Distance (km) Brightness Sun altitude
Exits shadow 01:10:14 17° 146° (SE) 3,320 10.3 -19.1°
Maximum altitude 01:12:39 18° 128° (SE) 3,195 10.3 -19.0°
Drops below altitude 10° 01:18:32 10° 89° (E) 3,776 11.1 -19.0°
Sets 01:22:48 0° 73° (ENE) 4,735 11.9 -18.9°
